Volver al catálogo

STARLINK-1564

ActivoComunicacionesVLEO
NORAD 46058·PAYLOAD·🇺🇸 United States

Lanzado Aug 7, 2020 desde Cape Canaveral Space Force Station

Loading…

Próximos Pases (próximas 24 horas)

TLE

ActualizadoSource: CelesTrak SupGP

Época: Sep 14, 2026, 20:39 UTC

1 46058C 20055AH  26257.86090278 -.00021865  00000+0 -70294-3 0  2572
2 46058  53.1569 315.1068 0001048  95.3806 347.6428 15.31721747    15

Sigue STARLINK-1564 en tiempo real con AllMySat

Download on the App Store